Miles City, MT

5:47 AM MDT on May 25, 2018 (GMT -0600)
Wiley

Weather History for KMLS - September, 2013

Change the Weather History Date:

Thursday, September 26, 2013

  Actual Average Record
Temperature  
Mean Temperature 49 °F 55 °F  
Max Temperature 53 °F 69 °F 95 °F (2015)
Min Temperature 45 °F 41 °F 20 °F (1942)
Degree Days  
Heating Degree Days 16 10  
Month to date heating degree days 60 156  
Since 1 July heating degree days 60 190  
Cooling Degree Days 0 0  
Month to date cooling degree days 142 56  
Year to date cooling degree days 877 728  
Moisture  
Dew Point 43 °F    
Average Humidity 78    
Maximum Humidity 93    
Minimum Humidity 63    
Precipitation  
Precipitation 0.02 in 0.04 in 0.60 in (1941)
Month to date precipitation 1.50 0.93  
Year to date precipitation 15.34 10.69  
Sea Level Pressure  
Sea Level Pressure 29.79 in    
Wind  
Wind Speed 12 mph (WNW)    
Max Wind Speed 25 mph    
Max Gust Speed 30 mph    
Visibility 10 miles    
Events Rain    
T = Trace of Precipitation, MM = Missing Value Source: NWS Daily Summary

Daily Weather History Graph

Daily Weather History Graph

Search for Another Location

Airport or City:

Astronomy

Sep. 26, 2013 Rise Set
Actual Time 6:56 AM MDT 6:52 PM MDT
Civil Twilight 6:25 AM MDT 7:22 PM MDT
Nautical Twilight 5:50 AM MDT 7:57 PM MDT
Astronomical Twilight 5:14 AM MDT 8:33 PM MDT
Moon 11:36 PM MDT (9/26) 2:07 PM MDT (9/26)
Length of Visible Light 12h 56m
Length of Day
11h 56m
Waning Gibbous, 54% of the Moon is Illuminated
Sep 26
Waning Gibbous
Sep 26
Last Quarter
Oct 4
New
Oct 11
First Quarter
Oct 18
Full

Hourly Weather History & Observations

Time (MDT) Temp. Windchill Dew Point Humidity Pressure Visibility Wind Dir Wind Speed Gust Speed Precip Events Conditions
12:09 AM 50.0 °F - 48.2 °F 94% 29.67 in 10.0 mi NNW 4.6 mph - N/A   Overcast
12:15 AM 50.0 °F - 48.2 °F 94% 29.66 in 10.0 mi NW 5.8 mph - N/A   Overcast
12:22 AM 50.0 °F - 48.2 °F 94% 29.66 in 10.0 mi NW 4.6 mph - N/A   Overcast
12:33 AM 50.0 °F - 48.2 °F 94% 29.67 in 10.0 mi West 4.6 mph - N/A   Overcast
12:38 AM 50.0 °F - 48.2 °F 94% 29.67 in 10.0 mi WNW 4.6 mph - N/A   Overcast
12:45 AM 50.0 °F - 48.2 °F 94% 29.67 in 10.0 mi NW 5.8 mph - N/A   Overcast
12:47 AM 50.0 °F - 48.2 °F 94% 29.67 in 10.0 mi NW 6.9 mph - N/A   Overcast
12:53 AM 50.0 °F - 48.0 °F 93% 29.66 in 10.0 mi NW 6.9 mph - N/A   Overcast
1:03 AM 50.0 °F - 48.2 °F 94% 29.66 in 10.0 mi NW 6.9 mph - N/A   Overcast
1:14 AM 50.0 °F - 48.2 °F 94% 29.67 in 10.0 mi NW 8.1 mph - N/A   Overcast
1:30 AM 50.0 °F - 48.2 °F 94% 29.67 in 10.0 mi WNW 8.1 mph - N/A   Overcast
1:53 AM 48.9 °F - 46.9 °F 93% 29.68 in 10.0 mi WNW 10.4 mph - N/A   Overcast
2:53 AM 48.9 °F - 46.0 °F 90% 29.70 in 10.0 mi NW 10.4 mph - 0.00 in Rain Light Rain
3:00 AM 48.2 °F - 46.4 °F 93% 29.69 in 10.0 mi NW 9.2 mph - 0.00 in Rain Light Rain
3:53 AM 48.0 °F - 46.0 °F 93% 29.69 in 10.0 mi NW 6.9 mph - 0.02 in   Overcast
4:08 AM 48.2 °F - 46.4 °F 93% 29.70 in 10.0 mi NW 6.9 mph - N/A   Overcast
4:38 AM 48.2 °F - 44.6 °F 87% 29.70 in 10.0 mi NW 8.1 mph - N/A   Overcast
4:53 AM 48.0 °F - 45.0 °F 89% 29.71 in 10.0 mi NW 8.1 mph - N/A   Overcast
5:03 AM 48.2 °F - 44.6 °F 87% 29.71 in 10.0 mi NW 10.4 mph - N/A   Overcast
5:53 AM 46.9 °F - 44.1 °F 90% 29.73 in 10.0 mi WNW 10.4 mph - N/A   Overcast
6:08 AM 46.4 °F 41.1 °F 44.6 °F 93% 29.73 in 10.0 mi NW 11.5 mph - N/A   Overcast
6:53 AM 46.9 °F - 44.1 °F 90% 29.75 in 10.0 mi WNW 9.2 mph - N/A   Overcast
7:53 AM 46.9 °F - 43.0 °F 86% 29.77 in 10.0 mi West 13.8 mph - N/A   Overcast
8:53 AM 48.0 °F - 43.0 °F 83% 29.78 in 10.0 mi West 16.1 mph - N/A   Overcast
9:53 AM 48.9 °F - 41.0 °F 74% 29.80 in 10.0 mi West 17.3 mph - N/A   Overcast
10:53 AM 48.9 °F - 39.9 °F 71% 29.82 in 10.0 mi West 18.4 mph - N/A   Overcast
11:53 AM 50.0 °F - 39.9 °F 68% 29.83 in 10.0 mi WNW 18.4 mph 23.0 mph N/A   Overcast
12:11 PM 50.0 °F - 39.2 °F 66% 29.83 in 10.0 mi WNW 17.3 mph - N/A   Overcast
12:50 PM 51.8 °F - 39.2 °F 62% 29.83 in 10.0 mi West 18.4 mph 23.0 mph N/A   Overcast
12:53 PM 51.1 °F - 39.9 °F 66% 29.84 in 10.0 mi West 17.3 mph 23.0 mph N/A   Overcast
1:17 PM 50.0 °F - 41.0 °F 71% 29.84 in 10.0 mi WNW 18.4 mph - N/A   Overcast
1:40 PM 51.8 °F - 41.0 °F 67% 29.84 in 10.0 mi WNW 17.3 mph - N/A   Overcast
1:53 PM 51.1 °F - 39.9 °F 66% 29.86 in 10.0 mi WNW 19.6 mph 26.5 mph N/A   Overcast
2:10 PM 51.8 °F - 39.2 °F 62% 29.85 in 10.0 mi WNW 17.3 mph 24.2 mph N/A   Overcast
2:53 PM 52.0 °F - 39.0 °F 61% 29.87 in 10.0 mi WNW 17.3 mph 23.0 mph N/A   Overcast
3:03 PM 53.6 °F - 37.4 °F 54% 29.87 in 10.0 mi WNW 18.4 mph 24.2 mph N/A   Mostly Cloudy
3:49 PM 51.8 °F - 39.2 °F 62% 29.88 in 10.0 mi WNW 18.4 mph - N/A   Overcast
3:53 PM 51.1 °F - 39.0 °F 63% 29.90 in 10.0 mi WNW 12.7 mph 24.2 mph N/A   Overcast
4:14 PM 51.8 °F - 39.2 °F 62% 29.89 in 10.0 mi WNW 16.1 mph - N/A   Overcast
4:53 PM 50.0 °F - 39.0 °F 66% 29.92 in 10.0 mi WNW 16.1 mph - N/A   Overcast
5:53 PM 48.9 °F - 39.0 °F 69% 29.93 in 10.0 mi NW 16.1 mph 23.0 mph N/A   Overcast
6:53 PM 48.9 °F - 39.9 °F 71% 29.94 in 10.0 mi NW 11.5 mph - N/A   Overcast
7:53 PM 48.0 °F - 39.9 °F 74% 29.95 in 10.0 mi NW 16.1 mph 19.6 mph N/A   Overcast
8:53 PM 46.9 °F - 39.9 °F 77% 29.97 in 10.0 mi WNW 5.8 mph - N/A   Mostly Cloudy
9:53 PM 46.0 °F 43.1 °F 39.9 °F 79% 29.99 in 10.0 mi WNW 5.8 mph - N/A   Partly Cloudy
10:53 PM 45.0 °F 41.2 °F 41.0 °F 86% 29.99 in 10.0 mi WNW 6.9 mph - N/A   Scattered Clouds
11:53 PM 45.0 °F 42.6 °F 41.0 °F 86% 29.99 in 10.0 mi West 4.6 mph - N/A   Mostly Cloudy